Hourly Data Report for October 26, 2016

All times are specified in Local Standard Time (LST). Add 1 hour to adjust for Daylight Saving Time where and when it is observed.

OTTAWA INTL A
ONTARIO

45°19'00.000" N
75°40'00.000" W
114.90 m
6106001
71628
YOW

Download Data

Hourly Data (October 2016)
Hourly Data Report for October 26, 2016
Temp Definition
°C
Dew Point Temp Definition
°C
Rel Hum Definition
%
Wind Dir Definition
10's deg

Wind Spd Definition
km/h
Visibility Definition
km
Stn Press Definition
kPa
Hmdx Definition


Wind Chill Definition


Weather Definition


TIME
00:00 Legend Double Dagger -0.8 -3.3 83 30 16 24.1 101.46   -6 LegendNANA
01:00 Legend Double Dagger -1.5 -3.1 89 28 12 24.1 101.50   -6 Mainly Clear
02:00 Legend Double Dagger -1.9 -3.2 91 28 9 24.1 101.53   -5 LegendNANA
03:00 Legend Double Dagger -2.1 -3.5 90 29 11 24.1 101.53   -6 LegendNANA
04:00 Legend Double Dagger -2.8 -4.8 86 30 13 24.1 101.57   -7 Clear
05:00 Legend Double Dagger -1.8 -4.2 84 32 17 24.1 101.65   -7 LegendNANA
06:00 Legend Double Dagger -1.2 -3.7 83 31 17 24.1 101.69   -6 LegendNANA
07:00 Legend Double Dagger -0.4 -4.0 77 30 14 24.1 101.78   -5 Mostly Cloudy
08:00 Legend Double Dagger -0.1 -3.7 77 30 19 24.1 101.85   -5 LegendNANA
09:00 Legend Double Dagger 0.5 -4.2 71 32 20 24.1 101.86     LegendNANA
10:00 Legend Double Dagger 1.3 -5.6 60 32 21 24.1 101.87     Mostly Cloudy
11:00 Legend Double Dagger 2.1 -6.3 54 32 16 24.1 101.87     LegendNANA
12:00 Legend Double Dagger 2.6 -5.8 54 33 22 24.1 101.80     LegendNANA
13:00 Legend Double Dagger 2.3 -6.6 52 31 10 24.1 101.82     Mostly Cloudy
14:00 Legend Double Dagger 2.2 -6.7 52 29 13 24.1 101.84     LegendNANA
15:00 Legend Double Dagger 2.4 -6.0 54 32 10 24.1 101.81     LegendNANA
16:00 Legend Double Dagger 1.9 -6.0 56 32 12 24.1 101.83     Cloudy
17:00 Legend Double Dagger 1.5 -6.1 57 30 13 24.1 101.88     LegendNANA
18:00 Legend Double Dagger 1.6 -6.5 55 33 10 24.1 101.87     LegendNANA
19:00 Legend Double Dagger 1.6 -7.2 52 34 10 24.1 101.85     Cloudy
20:00 Legend Double Dagger 0.9 -6.5 58 1 9 24.1 101.88     LegendNANA
21:00 Legend Double Dagger -0.6 -6.6 64 1 8 24.1 101.89   -3 LegendNANA
22:00 Legend Double Dagger -0.1 -6.5 62 36 7 24.1 101.89   -3 Clear
23:00 Legend Double Dagger -0.8 -6.6 65 2 5 24.1 101.89   -2 LegendNANA

Notes on Data Quality.

Legend

  • E = Estimated
  • M = Missing
  • NA = Not Available
  • ‡ = Partner data that is not subject to review by the National Climate Archives
Date modified: